This is the latest recevied weather packets stored in our database for station/object M0SDM. If no packets are shown the sender has not sent any weather packets the latest 10 day(s).
| Time | Temp. | Humidity | Pressure | Rain* | Wind** | Luminosity | Snow |
|---|---|---|---|---|---|---|---|
| 1777914621 | 11.67° C | 84% | 1014.7 hPa | 0 mm | - | - | - |
| 1777913721 | 12.22° C | 83% | 1014.3 hPa | 0 mm | - | - | - |
| 1777912821 | 12.22° C | 83% | 1014.3 hPa | 0 mm | - | - | - |
| 1777911921 | 12.22° C | 82% | 1014.1 hPa | 0 mm | - | - | - |
| 1777911021 | 12.22° C | 83% | 1014 hPa | 0 mm | - | - | - |
| 1777910121 | 12.22° C | 83% | 1013.9 hPa | 0 mm | - | - | - |
| 1777909221 | 12.22° C | 82% | 1014.2 hPa | 0 mm | - | - | - |
| 1777908321 | 12.22° C | 83% | 1013.9 hPa | 0 mm | - | - | - |
| 1777907421 | 12.22° C | 82% | 1014.1 hPa | 0 mm | - | - | - |
| 1777906521 | 12.22° C | 82% | 1014.1 hPa | 0 mm | - | - | - |
| 1777905621 | 12.22° C | 82% | 1013.9 hPa | 0 mm | - | - | - |
| 1777904721 | 12.22° C | 81% | 1013.9 hPa | 0 mm | - | - | - |
| 1777903821 | 12.78° C | 79% | 1014 hPa | 0 mm | - | - | - |
| 1777902921 | 12.22° C | 79% | 1013.9 hPa | 0 mm | - | - | - |
| 1777902021 | 12.78° C | 80% | 1014.1 hPa | 0 mm | - | - | - |
| 1777901121 | 12.78° C | 80% | 1014.1 hPa | 0 mm | - | - | - |
| 1777900221 | 12.78° C | 78% | 1014.2 hPa | 0 mm | - | - | - |
| 1777899321 | 12.78° C | 79% | 1014.1 hPa | 0 mm | - | - | - |
| 1777898421 | 12.22° C | 82% | 1014.2 hPa | 0 mm | - | - | - |
| 1777897521 | 12.22° C | 82% | 1014.1 hPa | 0 mm | - | - | - |
| 1777896621 | 12.22° C | 83% | 1014.4 hPa | 0 mm | - | - | - |
| 1777895721 | 12.22° C | 82% | 1014 hPa | 0 mm | - | - | - |
| 1777894821 | 12.22° C | 84% | 1014.2 hPa | 0 mm | - | - | - |
| 1777893921 | 11.67° C | 86% | 1014.6 hPa | 0 mm | - | - | - |
| 1777893021 | 11.11° C | 87% | 1014.2 hPa | 0 mm | - | - | - |
* Rain latest hour (hover to see other rain measurements)
** Current wind speed in m/s (hover to see current wind gust speed)